Regional Weather Roundup
Issued by NWS Kansas City/Pleasant Hill, MO

Home | Current Version | Previous Version | Text Only | Print | Product List | Glossary On
Versions: 1 2 3 4 5 6 7 8 9 10 11 12 13 14 15 16 17 18 19 20 21 22 23 24 25 26 27 28 29 30 31 32 33 34 35 36 37 38 39 40 41 42 43 44 45 46 47 48 49 50
000
ASUS43 KEAX 281610
RWREAX

WEATHER ROUNDUP FOR EASTERN KANSAS AND NORTHWEST MISSOURI
NATIONAL WEATHER SERVICE KANSAS CITY/PLEASANT HILL MO
1100 AM CDT FRI APR 28 2017

KSZ040-057-103>105-MOZ028-029-037-043-281700-
...KANSAS CITY METROPOLITAN AREA...

CITY           SKY/WX    TMP DP  RH WIND       PRES   REMARKS
K.C. INTL      CLOUDY    55  53  93 SE9       29.67S
K.C. DOWNTOWN  CLOUDY    58  54  86 VRB5      29.67R
LEES SUMMIT    CLOUDY    57  55  93 VRB6      29.68R
OLATHE - IXD   LGT RAIN  57  54  89 S13       29.68R
OLATHE - OJC   CLOUDY    57  56  96 S6        29.67R
LAWRENCE       CLOUDY    57  55  93 E7        29.67R

$$

MOZ001>008-011>017-020>025-030>033-038>040-044>046-053-054-281700-
...NORTHERN AND CENTRAL MISSOURI...

CITY           SKY/WX    TMP DP  RH WIND       PRES   REMARKS
ST. JOSEPH     LGT RAIN  48  48 100 E9        29.69F FOG
MOSBY          CLOUDY    54  54 100 E5        29.68S
WHITEMAN AFB   PTSUNNY   57  57 100 SE13G21   29.63F
CLINTON        LGT RAIN  57  55  94 SE18G24   29.67F
SEDALIA        LGT RAIN  57  32  38 SE6       29.74R
WARSAW         NOT AVBL
CHILLICOTHE      N/A     50  49  96 NE5       29.74S
KIRKSVILLE     LGT RAIN  47  47 100 NE9       29.77F FOG

$$

MOZ041-047>049-056>058-063>065-088>090-097-281700-
...EASTERN AND SOUTHERN MISSOURI...

CITY           SKY/WX    TMP DP  RH WIND       PRES   REMARKS
ST. LOUIS INTL LGT RAIN  57  53  86 MISG      29.83F
SPIRIT OF STL  TSTM      56  54  93 S6        29.84R
COLUMBIA       LGT RAIN  55  54  96 SE8       29.77R
JEFFERSON CITY LGT RAIN  58  54  86 SE8       29.77S
ROLLA          TSTM      56  54  93 SE13G21   29.76F
OSAGE BEACH    CLOUDY    57  54  89 NE6       29.75S
SPRINGFIELD    CLOUDY    59  55  87 SE16      29.68R
BRANSON        CLOUDY    59  55  88 SE12      29.72S
JOPLIN         CLOUDY    59  58  96 SE6       29.67S
WEST PLAINS    CLOUDY    62  55  77 E9        29.75F

$$

IAZ060-094-KSZ022-034>040-054-083-096-NEZ052-066-093-281700-
...KANSAS...SOUTHEAST NEBRASKA AND IOWA...

CITY           SKY/WX    TMP DP  RH WIND       PRES   REMARKS
TOPEKA         CLOUDY    56  54  93 SE6       29.66R
MANHATTAN      CLOUDY    55  53  93 CALM      29.65R
EMPORIA        CLOUDY    57  54  89 SE3       29.65S
CHANUTE        CLOUDY    60  55  83 S10       29.66R
WICHITA        PTSUNNY   62  55  77 W10       29.64R
OMAHA          LGT RAIN  39  33  79 NE12G18   29.83R WCI  32
LINCOLN        LGT RAIN  40  38  93 NE20G25   29.77S FOG     WCI  30
FALLS CITY     LGT RAIN  44  43  96 NE10      29.71R FOG
LAMONI         LGT RAIN  40  38  93 NE20G26   29.76F FOG     WCI  30
DES MOINES     LGT RAIN  38  33  82 NE13      29.87S WCI  30

$$




USA.gov is the U.S. government's official web portal to all federal, state and local government web resources and services.